Wind_Speed
12 14 16 16 16 15 14 13 13 13 12 11 11 10 10 9 8 8 8 8 8 8 9 10 10 11 11 11 11 11 11 11 12 14 15 17 18 19 20 21 22 22 23 24 24 24 25 26 28 29 30 31 31 32 32 33 34 35 36 37 37 39 41 42 44 44 42 42 44 43 42 41 39 37 38 38 38 38 38 38 38 38 38 38 37
15 17 17 16 15 14 13 13 13 12 11 11 10 10 9 7 7 7 7 7 8 8 9 10 10 10 10 10 10 10 11 12 13 14 16 17 18 20 21 21 22 22 23 24 25 25 25 27 28 29 31 32 32 33 33 34 35 36 37 38 38 39 40 42 43 45 45 43 44 45 44 44 43 41 39 39 39 38 38 38 38 38 39 39 39
19 19 17 15 14 13 13 13 12 11 11 10 9 8 7 6 6 6 7 7 8 9 9 10 10 10 9 9 9 10 11 12 13 15 16 17 19 20 21 21 22 22 23 25 26 27 27 27 28 29 31 32 32 33 34 35 36 36 37 38 39 39 40 42 43 45 46 45 45 46 46 46 46 46 43 42 41 40 40 39 39 39 39 40 40
21 21 19 16 14 13 13 13 11 10 10 9 8 7 6 6 6 6 7 8 8 9 10 10 9 9 9 9 9 10 11 13 14 16 17 18 19 20 21 21 22 23 24 25 27 28 28 28 28 29 30 31 32 32 33 34 35 36 38 38 39 40 41 42 43 45 46 47 47 47 48 48 48 48 47 46 44 42 41 41 40 40 39 39 41
21 22 20 17 16 14 14 13 11 9 9 9 8 7 6 6 6 7 8 9 9 10 10 9 9 8 8 8 9 10 12 13 15 16 17 18 19 20 20 21 23 24 25 26 27 28 28 28 28 29 30 31 31 32 33 34 36 36 38 39 40 41 42 43 44 44 46 47 48 48 48 49 48 48 48 48 47 45 43 41 41 41 40 39 40
21 21 20 18 17 15 14 13 10 9 9 8 8 7 7 6 7 8 8 9 9 9 9 8 8 8 8 9 10 11 13 14 16 17 18 19 19 20 21 22 23 24 25 26 27 28 28 28 27 28 30 31 32 33 34 34 35 37 38 39 40 41 41 42 43 44 45 46 47 48 47 47 48 47 46 46 48 48 46 44 41 41 41 40 38
20 20 19 18 17 16 15 12 10 9 9 8 8 8 7 7 8 8 9 9 9 9 8 8 8 8 8 9 11 12 13 15 16 17 18 18 19 20 21 22 23 24 24 25 26 28 29 29 29 29 30 32 33 34 35 35 35 35 37 38 39 40 41 42 43 44 45 45 46 47 47 46 47 47 46 46 47 48 48 48 45 42 40 40 39
19 19 19 18 17 17 15 12 10 9 9 9 9 9 8 8 8 9 9 9 9 8 8 7 7 8 9 10 12 13 14 15 16 17 18 18 19 20 21 22 23 24 24 25 26 28 29 29 30 31 31 32 33 33 34 35 34 34 36 37 39 40 41 42 43 44 45 46 46 46 46 46 46 47 47 47 47 47 47 48 48 45 41 39 38
18 18 18 17 18 18 15 12 10 10 10 10 10 9 8 8 9 9 9 9 8 8 7 7 7 8 9 11 12 14 15 16 16 17 18 18 19 20 21 22 23 24 25 25 26 27 29 29 30 31 31 31 31 32 33 33 34 35 36 37 39 40 41 42 44 45 46 47 47 46 46 46 47 48 48 47 48 48 47 46 47 46 43 39 36
18 19 18 18 19 18 15 13 11 10 11 11 11 10 9 9 9 9 9 8 8 7 7 7 7 8 10 12 13 14 15 15 16 17 18 18 19 20 21 21 23 24 25 25 26 27 28 30 30 30 31 31 31 31 31 32 33 34 35 37 39 41 42 43 45 46 47 48 48 48 49 49 49 49 49 48 47 47 46 46 45 45 43 41 37
20 20 19 19 20 18 15 13 12 11 12 12 11 10 9 9 10 9 9 8 7 7 6 7 8 9 11 12 13 14 14 15 15 16 17 18 19 19 20 21 22 24 25 25 25 26 27 28 29 30 31 31 31 31 31 32 33 34 35 37 38 40 42 44 45 46 47 48 48 48 49 50 50 49 50 49 48 47 47 46 46 45 43 43 41
22 21 20 20 19 17 14 13 13 12 13 12 12 11 10 10 10 9 9 7 6 6 6 7 9 10 11 12 13 14 14 15 16 16 17 17 18 19 20 21 22 23 24 25 25 25 26 27 29 30 31 31 32 32 32 32 33 34 35 36 37 38 40 41 43 44 45 46 46 46 46 47 48 48 48 50 50 50 49 48 47 46 43 41 41
19 18 18 18 17 16 15 14 13 13 14 13 12 11 10 10 10 9 8 7 6 6 7 8 9 11 11 12 13 14 14 15 15 16 16 17 18 19 20 21 22 23 24 24 25 25 26 27 28 29 30 31 32 33 33 34 34 34 34 35 35 36 37 38 38 40 41 42 43 43 42 43 45 46 47 50 52 53 53 51 49 47 44 40 38
17 17 18 18 17 16 15 14 14 14 14 13 12 11 10 10 10 9 8 6 6 6 7 9 10 11 11 12 13 13 14 14 14 15 16 16 17 18 19 21 22 23 24 24 25 25 26 27 29 30 31 32 34 35 35 34 34 34 34 34 35 35 36 37 37 38 38 39 39 39 39 39 42 45 46 49 52 54 55 54 52 49 46 41 37
18 19 19 18 18 16 15 14 15 15 15 13 11 11 11 10 10 8 7 6 6 6 8 9 10 10 11 12 12 13 13 13 14 14 15 16 17 18 19 20 21 22 23 24 25 25 26 28 29 31 32 33 35 35 35 34 34 34 34 34 34 35 35 36 37 38 38 37 37 37 37 38 40 42 45 48 51 53 54 54 53 51 48 43 38
20 20 20 19 18 16 15 15 15 15 14 13 12 11 11 10 9 8 7 6 6 6 7 8 9 10 10 11 11 12 12 12 13 14 14 16 17 18 19 20 21 22 23 24 25 26 27 28 30 31 33 34 34 34 34 33 33 33 34 34 34 35 35 36 37 38 38 37 36 35 35 36 37 40 43 46 49 51 52 52 51 50 49 46 40
21 21 21 20 18 16 15 16 15 15 14 13 12 12 11 10 9 7 6 6 6 6 7 7 8 9 9 10 11 11 11 12 12 13 14 15 16 17 18 20 21 22 23 24 25 26 27 29 30 32 33 33 33 33 32 32 32 33 34 34 35 36 36 37 38 38 38 37 34 33 33 34 37 39 41 43 45 46 48 49 47 46 46 44 40
22 22 21 19 18 16 16 16 15 15 14 13 12 12 11 10 9 7 6 6 5 6 6 6 7 8 9 9 10 10 10 11 11 12 13 14 15 16 17 19 20 22 23 24 25 27 28 29 30 31 32 32 31 31 31 31 32 33 34 35 36 37 38 39 40 39 39 37 33 31 32 34 37 39 40 41 41 41 42 43 42 41 41 40 37
21 21 20 18 17 17 17 16 15 15 14 13 13 13 11 10 8 7 6 5 5 5 5 6 6 7 8 8 9 9 9 9 10 11 12 14 15 16 17 19 20 21 23 23 24 26 27 28 29 30 31 30 30 29 30 31 31 33 35 36 37 38 39 40 41 42 42 39 35 33 33 35 37 40 41 41 40 39 38 37 35 35 35 35 33
20 19 19 18 18 17 17 16 15 15 15 14 14 13 11 10 8 7 6 5 4 4 5 5 5 6 7 7 7 7 8 8 9 11 12 13 15 16 17 18 19 21 22 22 23 24 25 27 28 29 29 29 29 30 30 30 31 33 35 36 38 39 40 40 41 42 42 40 36 34 35 36 38 42 42 42 41 40 38 35 31 30 30 30 28
20 20 19 18 18 18 17 16 16 16 15 15 14 13 11 10 8 7 5 4 3 4 4 4 5 6 6 6 6 6 7 9 10 11 12 13 15 16 17 18 19 21 21 22 23 24 25 26 27 28 29 29 30 31 30 30 31 33 35 36 37 38 39 40 41 41 41 40 37 35 36 36 39 43 45 45 43 41 38 34 30 28 27 26 24
20 20 19 18 18 17 16 16 16 16 16 15 14 12 11 9 8 6 4 4 3 3 3 4 4 5 4 5 5 6 7 9 10 11 12 13 15 15 17 18 20 21 21 23 23 24 25 26 27 28 30 31 31 31 31 31 32 33 34 35 36 36 38 39 41 42 41 41 39 37 36 38 42 47 49 48 44 41 38 33 28 27 27 24 20
20 20 18 18 18 17 17 17 17 17 16 15 14 12 10 9 7 5 4 3 3 3 3 3 3 2 3 4 6 7 8 9 10 11 12 14 15 16 17 19 20 21 22 23 24 24 25 26 27 28 30 31 32 32 32 33 33 33 34 35 35 36 36 38 40 42 42 42 41 39 37 39 45 49 51 50 46 40 35 30 26 28 28 22 16
21 19 18 18 18 17 17 18 18 17 16 15 14 12 10 8 7 5 3 3 3 3 3 2 2 2 4 5 6 8 8 9 11 12 13 14 15 16 18 19 20 21 23 24 24 25 26 27 28 29 30 31 32 33 33 33 32 32 33 34 35 35 36 38 40 41 42 43 43 41 39 40 45 48 51 52 47 38 31 25 22 25 27 21 14
21 19 18 18 18 18 19 19 19 18 17 15 14 12 10 8 7 5 3 3 3 3 2 1 2 4 5 6 7 8 8 9 11 11 12 13 14 16 17 18 19 21 23 24 24 25 27 28 28 29 30 31 33 34 33 32 32 32 33 34 35 36 37 38 40 41 43 44 44 43 40 40 43 47 50 52 49 39 30 24 18 19 21 19 14
20 19 18 18 19 19 19 20 20 19 18 16 14 12 10 8 6 5 4 4 4 4 1 1 3 5 6 7 7 8 9 10 11 11 12 13 14 15 16 17 19 21 22 23 24 25 26 27 28 29 30 31 33 34 34 33 32 32 33 34 35 37 37 39 40 41 43 44 44 44 42 39 41 45 49 52 51 43 34 27 20 15 14 14 13
19 18 18 19 19 20 20 21 20 19 18 16 15 13 10 8 7 6 6 6 6 3 2 3 5 5 6 7 8 9 10 10 10 11 12 13 14 15 16 17 19 21 22 22 23 24 25 27 28 29 30 31 33 34 34 34 34 34 34 34 35 36 37 38 39 40 42 43 44 45 43 40 40 45 48 52 54 49 39 30 23 17 11 7 6
18 18 19 20 20 20 21 22 21 20 19 17 15 12 10 8 8 8 8 7 5 3 3 4 5 6 6 7 9 9 9 9 10 11 12 12 13 14 15 17 18 20 20 21 22 23 25 26 27 28 29 31 33 34 34 34 35 36 36 35 34 35 36 36 37 38 41 43 44 45 45 43 42 44 47 51 54 53 46 36 27 21 15 9 6
19 19 21 21 20 21 23 22 21 21 20 17 14 12 10 10 10 10 9 7 5 4 4 5 5 5 6 7 8 8 8 8 9 10 11 11 12 14 15 16 18 18 19 20 21 22 24 25 26 27 30 32 33 34 35 36 36 36 37 37 36 35 36 37 38 39 41 43 44 45 47 46 44 44 46 49 53 55 52 44 34 26 21 15 10
20 21 22 21 21 23 24 24 23 22 20 16 13 13 13 13 12 11 9 8 7 6 5 5 5 5 6 6 6 6 7 7 8 9 10 11 12 13 14 15 16 17 18 20 21 22 23 25 26 28 30 32 33 34 36 37 37 37 38 38 38 37 37 37 38 39 41 42 43 45 46 48 47 45 45 48 51 53 54 51 43 33 27 22 17
21 22 22 21 22 24 25 25 24 22 17 14 14 15 15 14 13 11 10 9 7 6 6 5 4 4 4 4 4 5 5 6 7 8 9 11 12 13 14 15 16 17 18 19 20 22 23 24 25 27 29 31 32 34 35 36 38 39 39 39 39 38 38 38 38 39 40 41 42 43 45 47 48 47 46 47 49 51 53 54 49 42 36 31 26
22 23 22 22 24 26 26 25 24 20 16 15 16 17 16 15 12 11 10 9 8 7 6 5 4 3 2 1 2 3 4 5 6 8 9 11 12 13 14 15 16 17 18 18 20 21 22 23 25 26 28 30 31 33 34 35 37 38 39 39 39 39 39 39 38 38 38 40 41 42 44 45 47 47 47 47 48 50 52 53 52 49 44 39 35
23 22 21 23 26 28 27 27 24 20 17 17 17 17 16 15 12 11 10 9 8 7 6 5 4 3 2 1 1 2 3 5 6 8 9 10 12 13 14 15 16 17 18 19 20 21 22 23 24 25 27 28 29 31 33 34 35 37 38 39 40 39 39 38 37 37 37 38 39 41 42 44 45 46 47 47 48 50 51 51 52 52 49 45 41
22 21 21 25 28 29 28 26 23 20 19 19 19 18 17 15 13 11 10 9 9 8 6 5 5 4 3 3 3 3 4 6 7 8 9 11 12 13 14 15 16 17 18 19 20 21 21 22 23 24 25 26 28 29 31 32 34 35 37 38 39 39 39 38 38 38 38 38 38 39 41 42 44 45 46 47 48 49 50 50 51 51 51 49 47
21 21 24 27 28 28 27 24 23 21 21 21 19 19 17 15 13 12 10 9 9 8 8 7 6 5 5 4 4 5 5 7 8 9 10 11 12 13 15 15 16 17 18 19 20 21 21 21 22 24 24 25 26 27 29 30 32 33 35 36 37 38 39 39 39 39 39 38 38 39 39 40 42 44 45 45 47 48 50 50 49 49 50 50 50
23 25 27 29 29 28 26 24 23 23 22 20 20 19 17 15 13 12 10 9 9 9 8 8 6 6 6 5 5 6 7 7 9 9 11 12 12 14 15 15 16 17 18 19 20 21 21 21 22 23 23 24 24 25 26 28 30 31 33 34 35 37 38 39 39 39 39 39 39 39 39 39 40 41 42 43 45 46 47 48 49 48 47 47 48
26 27 30 31 30 28 27 25 25 25 23 21 20 19 17 15 14 12 11 10 9 9 8 7 7 7 7 6 7 8 9 9 9 10 11 11 12 13 14 15 16 17 18 19 20 20 21 21 21 22 22 23 23 24 25 26 27 29 30 31 33 35 36 37 38 39 39 39 39 39 39 39 39 40 41 42 42 43 44 45 47 47 47 46 46
28 29 30 31 30 28 27 27 27 26 24 23 21 19 17 15 14 13 12 11 11 11 10 9 9 8 9 8 8 8 9 10 9 10 10 11 12 14 15 16 16 17 18 19 20 21 21 21 21 22 22 22 22 22 23 24 25 26 27 29 30 32 33 34 36 37 38 38 39 39 39 39 38 39 39 40 41 41 41 42 44 45 46 47 46
30 29 31 32 31 29 29 29 29 27 25 24 22 19 17 15 14 13 13 12 12 11 11 10 9 9 9 9 8 8 9 9 10 10 11 12 13 14 16 17 17 18 19 20 21 21 21 21 22 22 22 21 22 22 22 22 23 24 25 26 27 29 30 32 33 34 35 37 38 38 38 38 38 38 38 38 39 39 40 40 40 42 43 45 45
29 30 33 34 32 31 30 30 29 27 25 24 21 19 17 15 13 12 11 11 10 10 10 9 9 10 10 10 9 10 10 11 12 13 14 14 15 16 17 18 19 19 20 21 21 21 21 21 22 22 22 21 21 21 21 21 21 22 23 24 25 27 28 29 31 32 33 34 35 36 37 37 37 37 37 37 37 37 37 37 37 38 39 40 41
29 33 35 34 33 31 31 31 29 27 25 24 22 19 18 16 14 13 12 11 11 11 10 10 10 11 12 12 12 13 13 14 15 16 16 17 18 18 19 20 20 21 21 22 22 22 22 22 22 22 22 22 22 21 21 21 20 21 21 22 23 24 25 26 28 29 30 31 32 34 35 36 36 36 37 36 35 35 35 35 35 35 35 35 36
32 34 35 33 33 32 32 31 29 27 26 24 22 20 19 17 16 14 14 13 13 13 12 12 13 14 14 15 15 15 16 17 17 18 18 19 20 20 20 20 21 21 22 22 22 22 22 23 22 22 22 21 21 21 22 21 20 20 20 21 21 21 22 24 25 26 27 29 30 31 32 33 34 34 35 35 35 34 34 33 33 33 33 33 33
33 34 33 32 32 31 30 29 28 27 26 24 22 21 20 18 17 16 15 15 14 14 14 15 16 17 17 17 17 18 18 19 19 19 20 20 20 20 21 21 21 21 22 22 21 21 21 22 22 22 21 21 20 21 21 22 22 21 20 20 20 20 20 21 22 23 24 25 26 28 29 30 31 32 32 33 33 33 33 32 31 31 31 31 31
33 33 32 31 31 29 28 28 28 27 26 25 23 22 20 20 19 18 17 16 16 16 16 17 17 18 19 19 19 19 19 19 20 20 20 20 20 20 20 20 21 21 21 21 20 20 19 19 19 19 19 19 19 20 20 21 22 22 21 20 20 19 19 19 20 20 21 22 23 25 26 27 28 29 30 30 31 31 31 31 31 30 29 29 29
32 31 30 31 30 28 27 27 27 26 26 26 24 23 22 21 21 19 18 17 17 17 18 18 19 19 20 20 20 20 19 19 20 20 20 20 20 20 20 20 20 21 21 21 20 20 19 19 19 19 19 18 19 20 20 20 20 20 20 20 20 20 19 19 18 19 19 20 20 21 23 24 25 26 27 28 28 29 29 29 29 29 28 27 27
31 30 30 29 28 26 25 26 26 26 26 26 24 23 23 22 21 21 20 19 19 19 19 20 20 21 21 21 21 20 20 20 20 20 20 20 20 20 20 21 21 21 22 21 20 20 19 19 18 17 16 16 17 18 18 19 19 19 19 19 20 20 20 19 18 17 18 18 18 18 19 21 23 24 25 26 26 26 27 27 27 27 27 27 26
30 30 29 28 26 26 25 25 25 26 26 25 24 24 23 22 22 21 20 20 20 20 20 21 22 22 22 22 22 21 21 21 21 20 20 20 20 21 21 21 22 22 22 22 22 22 21 21 20 18 15 13 13 15 17 17 19 20 20 19 19 19 19 19 18 17 17 16 17 17 17 18 20 21 22 23 23 24 24 24 24 24 25 25 25
30 30 29 28 27 26 26 25 25 25 25 24 24 24 23 23 23 22 21 21 21 21 22 22 23 23 22 22 22 21 21 21 21 21 21 21 21 22 22 22 22 22 23 23 23 24 24 24 24 22 20 17 15 15 16 17 19 21 22 22 21 20 19 18 18 18 17 16 16 16 16 16 17 18 19 20 21 21 21 22 22 22 21 22 23
31 30 29 28 27 27 26 25 24 24 24 24 24 24 24 24 23 23 23 23 23 23 23 23 23 23 23 22 21 21 21 21 21 21 21 22 22 23 23 24 24 24 24 23 24 25 25 25 25 25 25 24 22 19 18 18 19 20 21 22 22 22 21 20 18 17 17 17 16 15 15 16 16 17 17 18 18 18 19 19 20 20 19 19 19
30 30 29 28 27 26 25 24 24 24 24 24 25 25 24 24 24 24 24 24 24 24 24 24 24 24 23 22 22 22 22 22 22 22 22 22 23 23 24 25 25 25 25 24 24 25 26 26 26 26 26 26 26 25 23 21 20 19 19 20 21 22 23 23 21 19 18 18 17 16 16 15 15 16 16 16 17 16 17 17 17 17 17 17 17
30 29 29 28 27 26 26 25 25 25 24 24 24 24 24 24 24 24 25 25 24 24 24 24 24 24 24 23 23 23 23 23 23 23 23 23 24 24 25 25 26 26 25 25 25 25 25 25 25 26 27 27 27 26 24 21 19 17 17 17 19 21 23 25 25 23 21 20 19 18 17 16 15 15 15 16 16 16 15 15 16 15 15 15 15
Wind_Direction
265 269 272 272 271 271 275 279 282 287 292 298 302 305 306 309 312 311 308 304 298 294 292 290 290 291 293 295 297 301 306 311 317 322 326 328 329 329 328 327 327 327 327 327 328 330 329 327 327 326 325 326 326 325 324 323 322 321 319 318 317 315 314 313 311 311 311 310 308 307 305 302 298 294 290 288 286 284 283 282 280 277 273 269 265
269 274 275 276 275 274 278 282 286 292 298 301 303 303 303 305 306 302 296 292 289 289 289 290 292 294 295 298 302 307 313 319 323 327 329 329 328 327 326 326 327 328 329 328 329 330 330 330 329 328 327 327 327 326 326 325 323 322 320 319 318 317 316 315 314 313 312 311 309 308 306 304 301 298 293 289 286 283 281 280 279 276 273 270 266
272 279 279 280 284 284 284 286 289 294 299 299 298 297 297 297 294 290 286 286 289 289 290 292 293 294 296 300 306 312 319 323 326 328 328 327 326 326 327 328 329 330 331 330 330 331 331 332 330 329 328 327 327 327 326 326 324 322 322 321 320 319 318 318 317 315 314 313 312 311 309 307 304 302 299 294 291 287 282 280 278 276 273 270 267
273 279 280 285 293 294 290 287 289 293 295 295 292 289 286 284 282 282 284 287 288 289 290 291 292 293 296 303 310 318 323 325 326 326 327 326 328 329 329 330 331 332 333 332 331 331 332 333 332 329 328 328 328 328 327 326 325 324 323 323 322 322 321 320 320 319 317 316 315 315 314 312 309 307 305 300 296 293 288 284 280 277 274 270 267
272 278 282 291 297 296 291 286 286 290 291 288 283 277 273 273 276 279 283 286 286 287 288 288 289 293 299 308 316 321 323 325 325 326 328 329 330 331 331 331 332 332 333 332 331 331 332 333 333 330 329 329 329 329 328 328 327 327 326 325 324 324 323 322 322 321 320 319 318 317 317 316 314 312 310 307 303 298 294 290 285 281 276 271 267
271 278 285 293 297 294 288 283 281 283 283 278 271 267 263 266 272 277 281 282 283 284 284 285 289 296 305 313 317 321 323 325 327 328 331 332 332 332 332 332 333 333 334 334 333 332 332 333 333 332 331 331 331 330 331 331 331 329 328 327 326 326 325 325 324 323 323 322 321 320 319 318 316 314 314 312 309 306 302 297 292 287 282 275 269
271 278 286 293 295 293 285 278 275 274 274 269 261 258 258 264 270 274 278 279 280 281 281 285 293 300 308 313 318 322 325 328 330 331 333 333 333 332 333 333 333 334 336 337 335 333 333 333 333 334 335 334 333 333 333 333 333 332 330 329 328 328 327 327 326 326 326 326 324 323 321 319 317 316 315 313 310 308 306 302 298 294 289 282 274
270 278 288 292 293 290 281 271 267 266 264 259 254 253 256 263 269 272 275 276 276 279 280 286 295 301 309 317 321 326 329 331 333 334 334 333 332 333 334 334 335 336 337 338 336 334 333 334 335 336 337 337 336 336 335 334 334 334 333 332 331 331 331 330 330 329 329 328 326 324 322 320 318 317 315 312 309 306 305 303 300 298 295 289 281
268 280 288 288 288 286 275 263 260 258 255 251 249 252 258 265 268 269 270 271 271 273 277 284 295 304 314 321 325 329 332 334 335 334 333 333 333 334 336 336 337 337 338 339 338 335 335 336 337 337 337 337 338 338 337 337 337 337 337 336 335 334 333 333 333 332 331 330 328 325 323 321 320 319 317 314 311 308 305 302 300 299 297 293 288
269 279 283 282 283 279 267 256 253 251 248 247 248 253 259 261 264 264 263 263 263 267 275 286 298 311 319 324 329 332 334 335 334 334 333 334 334 336 337 339 339 339 339 339 339 338 338 338 338 337 337 338 339 340 340 340 341 342 341 340 338 337 336 335 334 333 332 331 330 328 326 324 323 322 319 316 313 310 307 304 300 297 296 293 290
270 277 277 278 277 270 256 249 247 245 244 245 248 252 255 255 256 257 255 254 258 266 278 292 305 316 322 326 331 333 334 335 334 335 335 335 336 337 339 340 340 339 340 340 340 341 341 339 338 338 338 339 340 342 344 344 345 346 345 343 340 338 336 335 335 334 333 331 330 329 326 325 324 323 321 318 316 313 311 310 306 302 298 295 292
267 270 271 273 268 256 246 243 242 241 241 243 245 247 248 248 249 249 249 250 257 269 285 300 311 319 324 329 333 334 336 337 337 337 336 336 338 340 341 341 341 340 341 341 342 343 341 339 339 340 341 341 342 344 346 348 349 348 346 344 341 337 335 335 334 333 332 331 329 328 327 325 324 324 323 321 319 317 315 314 312 308 304 298 293
263 266 269 268 257 244 239 238 237 238 239 241 243 242 242 242 242 242 245 249 259 273 291 306 314 321 327 332 335 337 338 339 338 337 336 338 341 342 342 342 342 342 342 343 344 343 342 341 342 343 343 342 343 345 348 350 350 348 346 343 340 337 336 335 334 333 332 331 329 328 328 327 326 326 325 322 320 319 317 316 314 311 307 302 295
265 271 273 265 248 237 235 234 234 236 237 239 239 236 236 237 237 238 242 249 263 280 298 309 316 325 330 335 338 338 339 339 338 337 338 340 343 343 343 344 344 344 343 344 345 345 344 344 344 344 345 345 346 348 350 351 349 347 345 343 339 338 337 337 336 336 336 334 332 331 331 331 329 325 322 320 318 318 316 315 314 311 307 303 298
267 272 273 261 242 233 232 231 233 235 236 237 234 231 232 232 232 235 240 251 269 287 303 312 319 328 333 337 339 339 339 339 338 338 341 343 344 345 346 346 346 346 345 346 347 347 347 347 346 347 348 349 350 351 351 350 347 345 344 342 340 339 339 339 340 340 340 339 337 337 336 335 330 323 319 318 316 314 312 310 309 307 304 302 300
267 272 270 255 237 230 230 231 233 234 234 233 230 228 227 227 229 232 238 255 275 291 305 313 322 331 335 338 339 339 340 340 339 341 344 346 347 347 348 348 348 348 348 349 349 350 350 350 349 351 352 352 353 352 350 348 345 343 344 343 341 342 341 342 344 344 344 343 341 341 339 335 328 322 319 316 314 312 309 307 306 303 300 299 299
268 270 264 247 231 228 230 230 232 233 231 229 225 224 224 223 225 230 239 257 277 292 306 316 326 334 337 338 340 341 342 342 342 345 347 349 350 349 350 351 351 351 351 351 351 351 352 353 352 354 355 354 353 351 348 347 345 344 344 344 344 345 344 345 346 346 347 346 344 343 340 334 328 324 321 318 316 314 311 308 307 304 300 299 300
266 264 254 237 226 227 229 229 231 230 227 224 221 220 221 221 222 228 240 259 277 291 308 321 329 334 338 340 343 345 345 344 345 349 351 352 353 353 355 355 354 354 355 354 353 353 354 355 355 356 357 355 353 350 349 349 347 346 346 346 347 348 348 347 347 348 349 348 345 344 341 336 332 330 328 326 323 320 317 312 309 305 301 300 302
264 254 240 227 224 227 227 228 229 227 223 220 216 216 218 219 222 230 241 259 277 295 313 324 331 337 341 346 348 348 346 345 349 353 355 356 358 359 360 359 358 358 358 356 356 356 356 356 358 358 358 355 353 352 353 351 350 349 348 348 350 351 350 349 348 350 350 349 347 345 342 339 340 339 337 335 333 329 323 317 311 305 301 301 302
259 240 225 222 224 226 226 227 227 222 218 214 212 214 216 217 222 231 241 258 278 299 314 323 334 343 348 352 351 347 347 350 354 359 0 1 3 4 3 2 2 2 1 359 359 359 358 358 360 0 359 357 356 357 357 355 353 352 350 350 353 354 351 349 350 351 351 349 348 345 342 343 346 346 345 344 341 336 331 324 316 308 304 304 303
246 227 220 221 224 225 226 225 222 218 213 209 209 212 214 217 223 228 237 254 272 289 309 330 345 350 353 354 350 347 352 358 1 3 4 6 8 7 5 5 6 5 3 3 2 1 360 0 2 3 2 1 1 1 1 359 358 355 352 353 356 356 351 349 350 352 351 351 350 346 343 348 353 354 353 352 347 341 337 331 322 315 313 311 305
233 222 220 221 224 226 225 222 218 214 209 206 208 210 212 217 221 224 235 252 266 293 325 347 352 352 353 354 358 5 7 8 7 6 9 12 11 9 8 9 8 7 7 6 5 3 3 3 4 5 4 4 4 4 4 3 1 358 354 354 357 357 353 350 351 351 352 354 352 348 348 355 1 2 1 358 352 346 341 336 328 322 322 319 312
227 221 220 222 226 225 222 219 215 209 205 204 207 209 211 214 216 217 229 248 274 315 336 344 348 1 7 4 13 20 17 15 13 11 14 15 13 11 12 11 10 9 10 9 7 5 5 5 5 7 7 6 6 7 7 6 3 359 355 354 357 358 355 353 353 353 354 356 354 350 353 2 7 8 6 3 358 352 347 341 332 327 328 329 327
223 220 220 222 224 222 219 216 209 203 202 202 204 206 207 207 207 208 223 254 293 315 316 321 353 40 44 33 29 27 24 21 17 15 17 17 15 15 15 12 11 12 12 10 8 8 8 7 7 8 8 8 9 10 10 7 3 360 357 355 357 359 358 356 356 355 355 358 357 353 357 7 12 11 11 9 4 358 355 351 339 330 332 340 346
222 220 219 220 221 219 216 211 204 200 200 200 201 203 201 199 198 203 226 260 276 276 276 319 33 54 55 51 44 38 33 28 22 19 19 18 18 19 16 13 14 15 13 10 8 9 10 9 9 9 9 10 12 12 11 8 4 2 359 357 359 1 0 0 359 357 358 0 359 357 359 8 14 15 16 15 11 5 5 5 356 341 336 342 354
221 219 219 220 220 218 214 208 202 199 199 198 197 196 192 189 195 205 221 232 235 235 230 68 61 59 58 56 50 44 40 34 28 25 23 20 20 20 17 15 18 17 14 10 10 11 11 10 9 10 10 12 14 14 12 9 7 5 3 1 1 2 3 3 2 360 0 2 2 1 2 7 14 18 20 21 18 13 13 14 11 3 350 345 353
219 219 220 221 220 217 211 206 201 199 198 196 193 190 188 190 202 211 216 216 214 201 133 93 78 67 63 60 53 47 42 37 31 28 27 23 21 20 17 18 21 18 12 10 11 12 12 11 10 10 11 14 16 16 13 10 8 8 8 6 4 3 5 6 4 2 2 3 3 5 6 8 15 21 23 25 23 20 20 21 19 17 14 12 20
216 217 221 222 219 215 209 202 200 200 197 191 186 186 191 199 206 208 210 208 195 162 124 104 91 79 69 64 59 51 45 40 34 30 29 25 22 20 17 17 21 18 11 9 11 12 12 12 10 9 12 15 16 16 15 13 10 9 9 10 8 5 6 8 7 6 6 5 5 7 8 10 16 22 25 28 28 26 25 26 28 28 29 38 60
214 216 220 219 216 212 205 200 199 198 192 186 184 188 194 201 205 205 204 199 181 155 132 114 102 90 76 67 63 55 47 42 36 31 28 24 22 21 17 16 18 16 9 9 12 13 12 11 9 9 13 14 14 14 15 15 13 11 10 11 11 9 8 9 10 10 10 8 6 8 10 12 16 22 26 29 31 30 29 29 32 36 38 40 47
214 218 219 218 214 209 202 199 198 193 187 187 192 193 195 202 204 202 199 191 178 161 143 127 112 95 79 70 63 54 45 39 33 28 25 21 19 18 15 14 16 13 7 6 10 12 12 10 9 11 13 13 12 13 13 13 13 13 11 11 11 11 11 11 11 12 12 10 8 9 11 13 17 21 26 29 32 33 32 32 33 37 41 45 48
217 220 220 216 211 205 201 200 195 189 188 196 195 190 197 205 204 199 197 190 179 167 154 139 122 104 89 76 62 48 37 30 24 21 19 16 14 13 11 10 12 11 6 2 5 9 10 9 8 11 14 12 11 11 11 12 12 12 13 12 11 11 12 13 12 13 14 12 10 11 12 14 17 21 25 29 32 34 35 35 35 38 43 46 49
219 221 219 213 206 202 200 197 191 189 199 202 191 188 200 206 201 197 197 191 181 175 167 152 139 131 124 91 57 34 20 14 11 10 9 7 6 6 7 6 6 7 4 360 1 5 7 6 7 10 13 12 10 10 10 10 10 11 11 12 12 11 12 13 13 14 15 14 12 12 14 15 17 20 25 29 32 34 35 36 36 38 43 47 50
218 218 215 209 203 201 198 193 192 200 207 199 190 194 202 202 198 198 198 194 190 185 178 172 173 183 202 244 329 349 350 350 354 356 356 358 358 358 0 2 1 1 0 358 357 1 4 4 5 8 10 10 9 9 9 8 9 10 10 11 12 11 11 12 12 14 16 17 15 14 15 16 17 20 24 29 32 34 36 36 37 38 40 45 49
217 214 211 207 203 199 195 194 202 211 204 192 192 201 202 199 200 200 197 197 197 193 190 194 201 212 230 256 288 313 325 330 337 342 345 347 350 351 354 357 356 356 356 355 353 357 1 1 2 5 7 7 7 8 8 7 8 9 9 10 10 11 11 12 12 13 16 18 17 16 17 18 18 19 22 27 31 34 36 37 37 38 39 42 45
212 206 205 203 200 196 196 203 212 209 197 192 199 204 202 200 201 199 199 201 202 200 203 206 211 223 235 251 276 294 305 315 325 334 337 340 345 348 350 352 351 351 352 350 350 354 358 359 359 1 3 3 4 5 6 6 6 7 8 8 9 9 11 12 12 12 14 16 17 17 18 19 20 20 20 24 29 33 36 37 38 39 40 41 43
206 201 200 199 197 197 203 212 212 204 198 200 203 203 203 204 203 201 203 206 207 210 212 210 217 234 247 262 279 290 301 313 321 328 333 336 342 344 345 347 347 346 347 347 346 350 355 356 357 358 359 359 360 1 3 5 5 5 5 6 7 8 9 11 11 12 12 13 15 17 17 19 22 22 21 23 27 31 35 37 38 39 41 42 44
203 201 199 197 197 201 209 213 207 203 206 208 205 204 207 207 204 205 209 212 216 221 223 224 233 248 263 276 285 292 302 311 318 323 328 333 338 340 340 341 343 343 344 343 342 346 351 353 353 354 355 355 356 357 359 1 3 4 4 4 5 7 8 9 10 11 12 12 13 15 15 17 21 23 22 22 25 29 33 36 38 39 41 42 44
203 200 198 198 201 207 212 210 205 207 212 211 207 208 210 206 204 208 211 214 219 223 227 228 230 238 254 267 276 286 295 303 311 318 323 329 333 333 333 335 337 339 340 339 339 343 348 349 348 349 351 351 351 353 355 356 359 2 2 2 4 5 6 7 9 10 11 11 12 14 14 15 18 22 24 22 22 26 30 34 37 38 40 42 44
206 200 196 201 209 214 213 209 208 213 216 212 209 211 213 211 209 210 211 213 217 222 229 234 236 242 255 265 272 280 287 296 305 311 316 322 325 325 326 329 332 334 335 335 336 341 344 344 343 344 346 346 347 348 350 351 354 357 360 1 2 3 4 6 7 9 11 11 11 13 13 13 15 19 23 24 23 24 26 30 35 38 39 41 43
205 196 197 205 212 215 213 211 213 217 219 216 213 214 217 217 217 218 221 226 228 232 240 247 252 259 266 271 276 281 287 295 302 306 311 315 316 318 322 326 328 330 331 332 333 336 339 339 339 339 340 340 342 343 345 347 349 351 355 358 360 0 2 3 5 7 9 10 11 11 12 13 13 16 19 22 24 25 24 26 31 36 40 42 43
196 194 202 210 212 212 214 217 218 220 221 220 218 218 221 222 222 222 227 234 240 245 251 255 261 267 271 275 281 287 292 296 300 304 308 310 313 318 322 324 325 327 327 327 329 332 334 335 334 333 334 336 337 338 339 342 344 345 348 353 357 359 359 0 3 4 6 9 10 10 11 12 13 14 16 19 22 24 25 26 27 31 36 40 43
193 200 208 212 211 212 216 221 223 224 224 221 220 222 225 227 227 228 231 235 241 247 252 257 263 267 271 276 282 287 292 296 299 303 306 309 313 318 320 320 322 322 321 323 327 329 330 329 326 326 327 330 332 334 335 337 339 341 341 344 350 355 356 358 0 2 4 6 8 9 10 11 11 12 14 16 18 21 24 25 26 28 31 35 39
199 207 212 212 213 215 219 223 227 230 228 224 222 226 230 233 234 234 236 240 245 251 256 261 266 271 275 280 284 288 292 297 299 302 306 309 312 315 316 317 319 318 317 321 326 328 327 324 323 322 323 323 326 330 332 333 335 336 336 337 342 348 352 354 357 359 0 3 6 7 8 9 10 10 12 14 16 18 21 23 25 27 29 31 34
205 212 213 212 213 217 221 225 230 233 232 229 226 227 231 236 239 240 242 245 249 255 259 263 268 273 277 281 285 288 292 296 298 302 305 308 310 312 314 315 316 316 318 322 326 327 326 327 328 327 324 320 320 324 329 331 332 333 332 331 333 338 343 348 352 355 357 359 3 5 6 8 8 8 9 11 13 16 18 21 23 24 27 31 32
210 214 213 211 212 217 222 227 232 235 235 233 229 226 229 234 240 244 248 251 254 257 260 263 266 271 275 279 284 288 291 294 297 300 304 306 308 310 312 313 314 317 320 323 325 326 327 330 333 332 328 322 319 319 322 324 327 330 330 328 328 330 334 338 343 349 352 354 357 1 3 5 7 7 6 8 10 12 15 18 21 21 23 28 32
211 211 211 214 217 220 225 229 233 236 237 236 234 232 232 235 239 244 248 253 256 260 264 267 270 273 276 280 284 289 291 295 298 301 303 306 308 309 311 313 316 319 321 323 324 325 326 328 332 335 333 327 321 319 318 320 323 325 326 325 323 323 325 327 332 338 344 347 350 353 357 1 3 4 4 4 6 8 10 13 18 20 20 23 29
208 207 211 218 222 225 227 230 233 236 238 239 239 239 239 240 243 246 250 254 258 262 267 270 273 277 280 283 287 290 293 296 300 303 305 307 309 309 311 314 316 318 320 322 324 324 325 326 330 336 339 334 328 324 323 322 322 321 319 318 317 317 316 318 321 325 331 337 342 344 348 352 356 359 1 1 1 3 5 7 11 16 18 18 23
204 207 214 221 225 227 228 229 232 236 239 241 242 243 244 246 248 251 253 256 259 262 266 270 273 276 280 283 287 291 295 298 302 305 306 308 308 309 311 313 315 318 321 323 324 325 325 326 329 334 336 334 332 328 325 323 321 317 312 310 309 309 309 310 312 315 318 324 330 334 337 340 344 349 353 355 356 358 360 1 4 8 13 15 17
206 212 219 225 228 230 230 229 230 234 237 240 243 245 246 248 251 254 256 258 260 262 265 268 271 274 278 283 288 292 296 299 302 304 305 307 308 310 312 314 316 318 321 323 324 324 325 326 328 330 330 329 330 331 330 329 325 318 309 304 303 304 303 302 303 306 309 311 315 321 325 330 333 337 341 346 349 350 352 355 357 359 4 8 12
212 218 224 229 233 236 236 235 232 232 233 236 240 243 246 250 253 255 257 260 263 265 268 272 275 279 283 287 291 294 297 300 302 303 304 306 308 310 312 314 317 319 321 322 323 324 325 326 326 325 325 325 328 332 334 334 331 324 312 303 299 299 299 299 299 299 300 301 303 307 312 317 321 325 329 334 338 341 343 345 347 350 354 358 2
219 223 228 233 237 241 242 243 241 239 239 239 240 243 246 250 252 255 258 261 264 269 273 277 280 284 287 291 293 296 299 301 303 304 305 306 308 310 313 315 318 319 320 321 321 322 323 322 321 320 321 323 325 329 332 333 333 332 325 313 304 300 300 302 302 301 299 296 296 297 300 304 309 313 318 323 327 330 333 335 335 338 342 346 351
Height
3151 3151 3151 3151 3151 3151 3151 3151 3151 3150 3150 3149 3148 3148 3147 3147 3146 3146 3146 3146 3146 3146 3146 3146 3146 3145 3145 3144 3144 3143 3142 3141 3139 3138 3137 3135 3134 3132 3131 3130 3128 3126 3125 3123 3122 3120 3118 3115 3113 3110 3108 3105 3103 3101 3098 3096 3093 3090 3087 3084 3082 3078 3074 3071 3066 3063 3064 3061 3056 3054 3054 3052 3052 3052 3049 3047 3046 3044 3042 3040 3040 3039 3039 3038 3039
3149 3149 3149 3149 3149 3149 3149 3148 3148 3148 3147 3146 3146 3146 3145 3145 3145 3144 3145 3145 3145 3145 3145 3144 3144 3144 3143 3142 3142 3141 3140 3139 3137 3136 3135 3134 3132 3131 3129 3128 3126 3125 3123 3121 3119 3118 3115 3113 3110 3107 3105 3102 3100 3098 3095 3093 3090 3087 3084 3080 3077 3074 3070 3066 3062 3058 3056 3055 3052 3048 3047 3044 3042 3042 3042 3040 3038 3038 3036 3034 3033 3032 3031 3031 3031
3146 3146 3147 3147 3146 3146 3146 3146 3146 3145 3145 3144 3144 3144 3143 3143 3143 3143 3143 3143 3143 3143 3143 3143 3142 3142 3141 3141 3140 3139 3138 3137 3136 3135 3133 3132 3131 3129 3127 3126 3124 3122 3121 3118 3116 3115 3113 3110 3108 3105 3103 3100 3098 3095 3092 3089 3086 3083 3080 3076 3073 3070 3066 3062 3058 3054 3050 3048 3046 3042 3039 3038 3035 3032 3032 3032 3030 3029 3028 3027 3026 3024 3024 3023 3023
3143 3144 3144 3144 3144 3144 3144 3144 3143 3143 3142 3142 3142 3142 3141 3141 3141 3141 3142 3142 3142 3142 3141 3141 3141 3140 3140 3139 3138 3138 3136 3135 3134 3133 3132 3130 3129 3127 3125 3123 3122 3120 3118 3116 3114 3112 3110 3108 3105 3103 3101 3098 3095 3093 3090 3086 3083 3079 3076 3073 3069 3065 3062 3058 3054 3050 3045 3042 3040 3036 3032 3030 3028 3025 3023 3022 3021 3020 3019 3018 3017 3017 3017 3016 3015
3141 3141 3142 3142 3142 3142 3142 3141 3141 3140 3140 3140 3140 3140 3140 3140 3140 3140 3140 3141 3141 3140 3140 3140 3139 3139 3138 3138 3137 3136 3135 3134 3133 3131 3130 3128 3127 3125 3123 3122 3120 3118 3116 3114 3112 3110 3108 3106 3104 3101 3098 3096 3093 3090 3087 3083 3080 3076 3072 3068 3065 3061 3057 3054 3050 3046 3042 3038 3034 3031 3027 3023 3020 3018 3015 3012 3011 3011 3011 3010 3009 3008 3008 3009 3008
3138 3139 3139 3139 3140 3140 3140 3139 3139 3138 3138 3138 3138 3139 3139 3139 3139 3139 3139 3139 3139 3139 3139 3138 3138 3137 3137 3136 3135 3135 3133 3132 3131 3129 3128 3126 3125 3123 3121 3120 3118 3116 3114 3112 3110 3107 3106 3104 3102 3099 3096 3093 3090 3087 3084 3080 3076 3073 3069 3065 3062 3058 3054 3050 3047 3043 3039 3034 3030 3026 3023 3019 3015 3012 3009 3006 3002 3000 3000 3000 3001 3000 2999 2999 3000
3136 3136 3136 3137 3137 3138 3137 3137 3137 3136 3136 3137 3137 3137 3137 3137 3137 3137 3138 3138 3137 3137 3137 3137 3136 3136 3135 3135 3134 3133 3132 3130 3129 3127 3126 3124 3123 3121 3120 3118 3116 3114 3113 3110 3108 3105 3103 3101 3099 3096 3093 3090 3087 3084 3080 3077 3074 3070 3066 3062 3059 3055 3051 3047 3043 3039 3035 3031 3027 3022 3018 3015 3010 3006 3004 3001 2998 2994 2992 2990 2990 2991 2991 2990 2990
3133 3134 3134 3135 3135 3135 3135 3135 3135 3134 3135 3135 3136 3136 3136 3135 3136 3136 3136 3136 3136 3136 3136 3135 3135 3135 3134 3133 3132 3131 3130 3129 3127 3126 3124 3123 3121 3120 3118 3116 3114 3112 3111 3109 3106 3103 3101 3099 3096 3093 3091 3088 3085 3081 3078 3074 3071 3068 3064 3060 3056 3052 3048 3044 3040 3036 3032 3027 3023 3019 3014 3010 3006 3002 2999 2996 2992 2989 2986 2982 2980 2981 2982 2981 2982
3131 3131 3132 3132 3133 3133 3133 3133 3133 3133 3133 3134 3134 3134 3134 3134 3134 3134 3134 3135 3135 3135 3135 3134 3134 3134 3133 3132 3131 3129 3128 3127 3126 3124 3123 3121 3120 3118 3116 3114 3112 3110 3109 3107 3104 3102 3099 3096 3094 3091 3089 3086 3083 3080 3076 3073 3069 3065 3061 3057 3053 3049 3045 3041 3037 3032 3028 3024 3019 3015 3010 3006 3002 2997 2993 2990 2986 2982 2980 2977 2973 2971 2972 2972 2974
3128 3129 3129 3130 3131 3131 3131 3130 3130 3131 3131 3132 3132 3132 3132 3132 3132 3133 3133 3133 3133 3133 3133 3133 3133 3132 3131 3130 3129 3128 3127 3126 3124 3123 3121 3120 3118 3116 3115 3113 3111 3109 3107 3105 3103 3100 3097 3095 3092 3090 3087 3085 3082 3078 3075 3071 3067 3064 3059 3055 3050 3046 3042 3038 3034 3029 3024 3020 3015 3010 3005 3001 2997 2992 2987 2984 2981 2977 2973 2970 2967 2965 2964 2963 2965
3126 3127 3127 3128 3128 3128 3128 3128 3128 3129 3129 3130 3130 3130 3130 3130 3131 3131 3132 3132 3132 3132 3132 3132 3131 3131 3130 3129 3128 3127 3126 3124 3123 3121 3120 3118 3117 3115 3113 3112 3110 3108 3106 3104 3101 3099 3096 3094 3091 3089 3086 3082 3080 3076 3073 3069 3066 3062 3058 3053 3049 3044 3039 3035 3030 3026 3022 3017 3012 3007 3001 2996 2992 2988 2983 2978 2975 2971 2968 2965 2961 2959 2957 2955 2955
3123 3124 3124 3125 3125 3125 3126 3126 3126 3127 3127 3128 3128 3128 3128 3129 3129 3130 3130 3131 3131 3131 3130 3130 3130 3129 3128 3127 3126 3125 3124 3123 3121 3120 3119 3117 3116 3114 3112 3110 3109 3107 3105 3102 3100 3098 3096 3093 3090 3087 3084 3080 3077 3074 3071 3067 3063 3060 3056 3052 3048 3043 3039 3034 3029 3024 3019 3014 3009 3005 2999 2993 2988 2984 2980 2974 2969 2966 2963 2960 2957 2953 2951 2949 2947
3120 3121 3122 3122 3122 3123 3123 3124 3124 3125 3126 3126 3127 3127 3127 3127 3128 3128 3129 3129 3129 3129 3129 3129 3128 3127 3127 3126 3125 3124 3122 3121 3120 3119 3117 3116 3114 3113 3111 3109 3107 3105 3103 3101 3099 3097 3095 3092 3089 3086 3082 3079 3075 3071 3068 3064 3061 3058 3054 3051 3047 3043 3038 3034 3029 3023 3018 3013 3007 3002 2997 2992 2986 2981 2977 2972 2966 2962 2958 2954 2952 2948 2945 2944 2941
3117 3118 3119 3120 3120 3120 3121 3122 3122 3123 3124 3125 3125 3125 3125 3126 3127 3127 3127 3128 3128 3128 3127 3127 3127 3126 3125 3124 3124 3122 3121 3120 3119 3118 3116 3115 3113 3112 3110 3108 3106 3104 3102 3100 3098 3096 3093 3090 3087 3084 3080 3077 3073 3068 3065 3062 3059 3056 3053 3049 3045 3041 3036 3032 3027 3022 3017 3012 3006 3001 2996 2991 2985 2980 2976 2971 2965 2959 2954 2949 2946 2943 2939 2938 2936
3115 3116 3117 3117 3118 3118 3119 3120 3121 3121 3122 3123 3123 3123 3124 3125 3125 3126 3126 3126 3126 3126 3126 3126 3125 3125 3124 3123 3122 3121 3120 3119 3118 3117 3115 3114 3112 3111 3109 3107 3105 3103 3101 3099 3097 3095 3092 3089 3085 3082 3078 3074 3070 3066 3063 3060 3057 3054 3051 3047 3043 3039 3035 3030 3025 3020 3015 3010 3004 2999 2994 2990 2985 2979 2973 2968 2962 2956 2951 2945 2941 2937 2933 2930 2929
3113 3114 3114 3115 3115 3116 3117 3118 3119 3120 3120 3121 3121 3122 3123 3123 3124 3124 3125 3125 3125 3125 3125 3124 3124 3123 3122 3122 3121 3120 3119 3118 3117 3116 3114 3113 3111 3110 3108 3106 3104 3103 3100 3098 3096 3093 3090 3087 3084 3080 3077 3073 3069 3066 3062 3059 3056 3052 3049 3046 3042 3038 3033 3028 3023 3018 3013 3008 3003 2999 2994 2989 2984 2978 2972 2965 2959 2952 2946 2940 2936 2931 2926 2923 2922
3110 3111 3111 3112 3113 3114 3115 3116 3117 3118 3118 3119 3120 3120 3121 3122 3123 3123 3124 3124 3124 3124 3123 3123 3123 3122 3121 3120 3120 3119 3118 3117 3116 3115 3113 3112 3110 3109 3107 3106 3104 3102 3099 3097 3094 3092 3089 3086 3083 3079 3075 3072 3068 3065 3062 3058 3055 3051 3047 3043 3039 3035 3031 3026 3021 3016 3012 3007 3002 2997 2993 2988 2982 2975 2969 2962 2955 2947 2939 2933 2928 2924 2919 2916 2914
3107 3108 3109 3110 3111 3112 3113 3114 3115 3116 3117 3117 3118 3119 3120 3121 3122 3122 3122 3122 3122 3122 3122 3122 3121 3121 3120 3119 3118 3118 3117 3116 3115 3114 3113 3111 3110 3108 3107 3105 3103 3101 3098 3096 3093 3090 3087 3085 3081 3078 3074 3071 3068 3064 3061 3057 3053 3049 3045 3041 3037 3033 3028 3022 3018 3013 3009 3005 3000 2996 2992 2986 2979 2972 2965 2958 2950 2943 2935 2927 2922 2918 2913 2910 2908
3104 3105 3106 3107 3109 3110 3111 3112 3113 3114 3115 3116 3117 3118 3119 3120 3120 3121 3121 3121 3121 3121 3121 3121 3120 3120 3119 3118 3117 3117 3116 3115 3114 3113 3112 3110 3109 3108 3106 3104 3102 3100 3098 3095 3093 3090 3087 3084 3081 3077 3074 3071 3067 3064 3060 3056 3052 3048 3043 3039 3035 3030 3025 3020 3015 3010 3006 3001 2997 2993 2988 2983 2976 2968 2960 2952 2945 2938 2931 2924 2918 2913 2909 2906 2904
3101 3102 3103 3105 3106 3108 3109 3111 3112 3113 3114 3115 3116 3117 3118 3119 3119 3120 3120 3120 3120 3120 3120 3119 3119 3118 3118 3117 3117 3116 3115 3114 3113 3112 3111 3110 3108 3107 3105 3104 3102 3100 3098 3095 3092 3090 3087 3084 3081 3078 3074 3071 3067 3063 3059 3055 3051 3046 3042 3037 3033 3028 3023 3019 3014 3009 3004 2999 2995 2990 2985 2980 2972 2964 2955 2947 2939 2933 2926 2920 2914 2909 2905 2903 2901
3098 3100 3101 3103 3104 3106 3108 3109 3110 3111 3112 3113 3115 3116 3117 3118 3118 3118 3118 3119 3119 3119 3119 3118 3118 3117 3117 3116 3116 3115 3114 3113 3112 3111 3110 3109 3108 3106 3105 3103 3101 3099 3097 3094 3092 3089 3087 3084 3081 3078 3074 3071 3067 3062 3059 3055 3050 3045 3041 3036 3032 3027 3023 3018 3013 3008 3004 2998 2993 2988 2983 2976 2969 2960 2951 2943 2935 2928 2921 2915 2910 2906 2902 2900 2898
3096 3098 3100 3101 3103 3105 3106 3108 3109 3110 3111 3112 3113 3115 3115 3116 3117 3117 3117 3118 3118 3118 3117 3117 3117 3116 3116 3116 3115 3114 3113 3112 3111 3111 3110 3108 3107 3106 3104 3102 3100 3098 3096 3094 3091 3089 3086 3083 3080 3077 3074 3070 3066 3062 3058 3054 3049 3045 3040 3036 3032 3028 3023 3018 3013 3008 3003 2997 2991 2986 2980 2973 2965 2956 2947 2939 2932 2925 2918 2912 2907 2903 2900 2897 2895
3094 3096 3098 3100 3102 3104 3105 3106 3107 3108 3110 3111 3112 3113 3114 3115 3115 3116 3116 3117 3117 3116 3116 3116 3116 3116 3116 3115 3114 3113 3112 3111 3111 3110 3109 3108 3107 3105 3104 3102 3100 3098 3096 3093 3091 3088 3085 3082 3079 3076 3073 3069 3066 3061 3057 3052 3049 3045 3040 3036 3032 3028 3024 3019 3013 3007 3002 2996 2990 2984 2979 2971 2962 2954 2945 2937 2930 2923 2916 2910 2905 2900 2897 2895 2893
3092 3094 3096 3098 3100 3102 3103 3104 3106 3107 3109 3110 3111 3112 3113 3113 3114 3115 3115 3115 3115 3115 3115 3116 3116 3115 3115 3114 3113 3112 3112 3111 3110 3109 3108 3107 3106 3105 3103 3101 3099 3097 3095 3092 3090 3088 3085 3082 3079 3076 3073 3069 3065 3061 3056 3052 3049 3045 3041 3036 3032 3028 3024 3018 3012 3006 3001 2995 2989 2983 2977 2970 2962 2954 2946 2938 2931 2924 2917 2911 2905 2900 2896 2894 2893
3091 3093 3095 3097 3098 3100 3101 3103 3104 3106 3107 3109 3110 3111 3111 3112 3113 3114 3114 3114 3114 3114 3115 3115 3114 3114 3114 3113 3113 3112 3111 3110 3109 3109 3108 3107 3106 3104 3103 3101 3099 3097 3094 3092 3090 3087 3084 3081 3078 3075 3073 3069 3065 3060 3056 3053 3049 3045 3041 3037 3032 3028 3023 3017 3012 3006 3000 2995 2989 2983 2977 2971 2964 2957 2949 2940 2933 2925 2918 2912 2907 2902 2898 2895 2893
3089 3092 3093 3095 3097 3098 3100 3101 3103 3104 3106 3107 3108 3110 3110 3111 3112 3113 3113 3113 3114 3114 3113 3113 3113 3113 3112 3112 3112 3111 3111 3110 3109 3109 3108 3106 3105 3104 3102 3101 3098 3096 3094 3092 3090 3087 3084 3082 3079 3076 3073 3069 3064 3060 3056 3053 3050 3046 3042 3037 3032 3027 3023 3017 3011 3006 3001 2996 2990 2984 2978 2973 2966 2959 2950 2942 2934 2926 2918 2912 2908 2905 2901 2897 2895
3088 3090 3092 3094 3095 3097 3098 3100 3101 3103 3105 3106 3107 3108 3109 3110 3111 3112 3112 3112 3112 3112 3112 3112 3112 3112 3112 3112 3111 3111 3110 3110 3109 3109 3107 3106 3105 3104 3102 3100 3098 3096 3094 3092 3090 3087 3085 3082 3079 3076 3073 3069 3065 3061 3058 3054 3050 3046 3042 3037 3033 3028 3024 3018 3013 3008 3003 2997 2992 2986 2981 2975 2968 2959 2951 2943 2936 2929 2921 2915 2910 2906 2903 2901 2898
3087 3089 3091 3092 3094 3095 3097 3099 3100 3102 3103 3105 3106 3107 3108 3109 3110 3110 3111 3111 3111 3111 3111 3111 3111 3111 3111 3111 3110 3110 3110 3110 3109 3108 3107 3106 3105 3103 3102 3100 3098 3096 3095 3093 3090 3087 3085 3082 3079 3077 3073 3069 3065 3062 3059 3055 3050 3046 3042 3038 3033 3029 3025 3021 3016 3010 3004 2999 2994 2988 2982 2976 2969 2961 2953 2946 2939 2932 2925 2919 2913 2908 2905 2903 2902
3086 3087 3089 3090 3092 3094 3095 3097 3099 3101 3102 3104 3105 3106 3107 3108 3109 3109 3110 3110 3110 3110 3110 3110 3111 3111 3110 3110 3110 3110 3110 3110 3109 3108 3107 3106 3105 3103 3102 3100 3098 3096 3095 3093 3090 3088 3085 3082 3080 3076 3072 3068 3065 3062 3058 3055 3051 3047 3042 3038 3034 3030 3026 3021 3016 3011 3005 3000 2995 2989 2983 2977 2971 2963 2957 2949 2943 2936 2930 2923 2917 2912 2908 2905 2904
3084 3085 3087 3088 3090 3092 3094 3096 3098 3099 3101 3103 3104 3105 3106 3107 3108 3108 3109 3109 3109 3109 3109 3110 3110 3110 3110 3110 3110 3110 3110 3109 3109 3108 3107 3106 3104 3103 3101 3100 3098 3096 3094 3092 3090 3087 3085 3082 3079 3076 3071 3068 3065 3061 3058 3054 3051 3047 3043 3038 3034 3030 3026 3022 3017 3012 3007 3002 2997 2991 2985 2980 2973 2966 2960 2953 2946 2941 2935 2928 2923 2917 2912 2908 2906
3081 3083 3084 3087 3089 3091 3093 3095 3096 3098 3100 3102 3103 3104 3105 3106 3107 3107 3108 3108 3108 3108 3109 3109 3109 3109 3109 3110 3110 3109 3109 3109 3108 3107 3106 3105 3104 3102 3101 3099 3097 3095 3094 3092 3090 3087 3084 3082 3079 3075 3071 3068 3065 3061 3058 3054 3051 3047 3043 3039 3035 3031 3027 3022 3018 3013 3009 3004 3000 2994 2988 2983 2977 2970 2963 2957 2951 2945 2939 2934 2928 2922 2917 2912 2909
3079 3081 3083 3085 3087 3089 3091 3093 3095 3097 3099 3100 3101 3102 3104 3105 3105 3106 3107 3107 3107 3107 3108 3108 3108 3109 3109 3109 3109 3109 3108 3108 3107 3106 3105 3104 3103 3101 3100 3098 3097 3095 3093 3091 3089 3087 3084 3082 3079 3075 3071 3068 3065 3062 3059 3055 3051 3048 3044 3040 3036 3032 3028 3023 3020 3016 3011 3007 3002 2997 2992 2986 2981 2975 2968 2961 2955 2949 2943 2938 2934 2928 2923 2918 2914
3077 3079 3082 3084 3086 3087 3089 3091 3093 3095 3097 3098 3099 3101 3102 3103 3104 3105 3105 3106 3106 3106 3107 3107 3108 3108 3108 3108 3108 3108 3107 3107 3106 3105 3104 3103 3102 3101 3099 3097 3096 3094 3092 3091 3089 3086 3084 3081 3078 3075 3072 3069 3066 3063 3059 3056 3052 3049 3045 3041 3037 3033 3029 3025 3022 3018 3014 3009 3005 3000 2995 2990 2984 2979 2973 2966 2960 2954 2948 2943 2939 2934 2929 2924 2920
3076 3079 3081 3083 3085 3086 3088 3090 3092 3094 3096 3096 3098 3099 3100 3101 3102 3103 3104 3104 3105 3105 3106 3106 3107 3107 3107 3107 3107 3107 3106 3106 3105 3104 3103 3102 3101 3100 3098 3096 3095 3093 3091 3090 3088 3086 3083 3081 3078 3075 3072 3069 3067 3063 3060 3057 3053 3050 3046 3042 3039 3035 3031 3027 3024 3020 3016 3012 3008 3003 2998 2993 2988 2983 2977 2971 2965 2960 2954 2949 2944 2940 2935 2931 2926
3075 3077 3080 3082 3084 3086 3087 3090 3092 3093 3094 3095 3096 3098 3099 3100 3101 3101 3102 3103 3103 3104 3105 3105 3106 3106 3106 3106 3106 3106 3105 3105 3104 3103 3102 3101 3100 3098 3097 3096 3094 3092 3091 3089 3087 3085 3082 3080 3077 3075 3072 3070 3067 3064 3061 3058 3054 3051 3047 3044 3040 3036 3033 3029 3025 3021 3017 3013 3010 3006 3002 2997 2992 2987 2982 2976 2971 2964 2959 2955 2950 2946 2942 2938 2933
3073 3075 3078 3081 3083 3085 3087 3089 3090 3091 3092 3094 3096 3097 3098 3099 3099 3100 3101 3101 3102 3103 3103 3104 3104 3105 3105 3105 3105 3104 3104 3103 3103 3102 3101 3100 3098 3097 3096 3095 3093 3092 3090 3088 3086 3084 3082 3079 3077 3074 3072 3070 3067 3065 3062 3059 3055 3052 3048 3045 3042 3038 3034 3030 3026 3023 3019 3015 3012 3008 3005 3000 2995 2991 2986 2982 2976 2970 2965 2961 2957 2953 2949 2945 2941
3071 3074 3076 3079 3081 3083 3085 3087 3089 3090 3091 3093 3094 3096 3096 3097 3098 3098 3099 3100 3100 3101 3102 3102 3103 3103 3103 3103 3103 3103 3102 3102 3101 3100 3099 3098 3097 3096 3095 3093 3092 3091 3089 3087 3085 3083 3081 3078 3076 3074 3072 3070 3067 3065 3062 3059 3056 3053 3050 3047 3043 3039 3036 3032 3028 3025 3021 3017 3013 3010 3007 3003 2999 2994 2990 2986 2982 2977 2972 2968 2963 2959 2956 2952 2948
3069 3072 3075 3078 3080 3082 3083 3085 3087 3088 3090 3091 3093 3094 3095 3096 3096 3097 3098 3098 3099 3100 3100 3101 3101 3102 3102 3102 3102 3101 3101 3100 3099 3099 3098 3097 3096 3095 3093 3092 3091 3089 3088 3086 3084 3082 3080 3078 3076 3074 3071 3069 3067 3065 3062 3060 3057 3054 3051 3048 3045 3041 3038 3034 3031 3027 3023 3020 3016 3012 3009 3006 3002 2998 2994 2990 2986 2982 2978 2973 2969 2965 2961 2957 2953
3065 3069 3073 3076 3078 3080 3081 3083 3085 3087 3088 3090 3091 3092 3093 3094 3095 3095 3096 3097 3097 3098 3098 3099 3100 3100 3100 3100 3100 3100 3099 3099 3098 3097 3096 3095 3094 3093 3092 3091 3089 3087 3086 3084 3083 3080 3078 3076 3075 3073 3071 3069 3066 3064 3062 3060 3057 3054 3052 3049 3046 3043 3040 3036 3033 3029 3026 3022 3018 3015 3011 3008 3005 3001 2998 2994 2991 2987 2983 2979 2975 2971 2967 2963 2959
3062 3066 3070 3073 3075 3077 3079 3081 3083 3085 3087 3088 3089 3091 3092 3092 3093 3093 3094 3095 3095 3096 3096 3097 3097 3098 3098 3098 3098 3098 3098 3097 3096 3095 3094 3093 3092 3091 3090 3088 3087 3085 3084 3082 3080 3079 3077 3075 3073 3071 3070 3068 3066 3064 3062 3059 3057 3054 3052 3049 3047 3044 3041 3038 3034 3031 3028 3024 3021 3018 3014 3011 3008 3005 3001 2998 2995 2992 2988 2984 2981 2977 2973 2970 2967
3060 3064 3067 3070 3073 3075 3077 3078 3080 3083 3085 3086 3087 3089 3090 3090 3091 3092 3092 3093 3093 3094 3094 3095 3095 3095 3096 3096 3096 3095 3095 3094 3094 3093 3092 3091 3090 3088 3087 3086 3084 3083 3081 3080 3079 3077 3075 3074 3072 3070 3068 3067 3065 3063 3061 3059 3057 3054 3052 3050 3047 3045 3042 3039 3036 3033 3030 3027 3024 3021 3017 3014 3011 3008 3004 3001 2998 2996 2993 2990 2986 2983 2979 2976 2973
3058 3061 3065 3068 3070 3072 3074 3076 3078 3080 3082 3084 3085 3086 3088 3088 3089 3090 3090 3091 3092 3092 3092 3093 3093 3093 3094 3094 3093 3093 3092 3092 3091 3090 3089 3088 3087 3086 3084 3083 3082 3081 3079 3078 3077 3075 3073 3072 3070 3068 3067 3065 3063 3062 3060 3058 3056 3054 3052 3049 3047 3045 3043 3040 3037 3035 3032 3029 3026 3023 3020 3017 3014 3011 3008 3005 3002 2999 2996 2994 2991 2988 2985 2981 2979
3056 3060 3063 3065 3068 3070 3073 3075 3076 3078 3080 3081 3083 3084 3085 3086 3087 3088 3088 3089 3089 3090 3090 3091 3091 3091 3091 3091 3091 3090 3090 3089 3088 3087 3087 3085 3084 3083 3082 3081 3080 3079 3078 3076 3075 3073 3071 3070 3068 3066 3065 3063 3061 3060 3058 3057 3055 3054 3051 3049 3047 3045 3043 3041 3038 3036 3033 3031 3028 3025 3022 3020 3017 3014 3011 3008 3006 3003 3000 2997 2995 2992 2989 2986 2983
3054 3057 3060 3063 3065 3068 3070 3072 3074 3075 3077 3079 3081 3082 3083 3084 3084 3085 3086 3086 3087 3087 3088 3088 3088 3088 3088 3088 3088 3087 3087 3086 3085 3084 3084 3083 3082 3081 3080 3079 3078 3077 3075 3074 3072 3071 3069 3068 3066 3064 3063 3061 3060 3058 3056 3055 3054 3052 3051 3049 3046 3044 3043 3041 3039 3037 3034 3032 3029 3027 3024 3022 3019 3017 3014 3011 3009 3006 3003 3001 2998 2996 2993 2991 2988
3053 3055 3058 3060 3063 3065 3068 3070 3071 3073 3074 3076 3078 3079 3080 3081 3082 3083 3083 3084 3084 3085 3085 3086 3086 3086 3085 3085 3085 3084 3084 3083 3083 3082 3081 3080 3079 3079 3078 3077 3076 3074 3073 3071 3070 3069 3067 3066 3064 3062 3060 3059 3057 3056 3054 3053 3051 3050 3049 3047 3045 3043 3042 3040 3038 3036 3035 3032 3030 3028 3026 3023 3021 3019 3016 3014 3011 3009 3006 3004 3001 2999 2997 2995 2992
3051 3053 3056 3058 3061 3063 3065 3067 3069 3070 3072 3073 3074 3076 3077 3078 3079 3080 3081 3081 3081 3082 3082 3082 3082 3082 3082 3082 3082 3081 3081 3081 3080 3079 3078 3077 3076 3076 3075 3074 3072 3071 3069 3068 3067 3066 3065 3064 3062 3060 3059 3057 3055 3054 3052 3051 3049 3048 3047 3045 3044 3042 3041 3039 3037 3036 3034 3032 3031 3029 3027 3025 3022 3020 3018 3016 3013 3011 3009 3007 3004 3002 3000 2998 2995
3049 3052 3054 3056 3059 3061 3063 3065 3066 3068 3069 3070 3072 3073 3074 3075 3076 3077 3078 3078 3078 3078 3079 3079 3079 3079 3079 3078 3078 3078 3078 3077 3077 3076 3075 3074 3073 3072 3071 3070 3069 3067 3066 3065 3064 3063 3062 3061 3060 3058 3057 3055 3054 3052 3050 3049 3047 3045 3044 3043 3041 3040 3039 3037 3036 3035 3033 3032 3030 3029 3027 3025 3023 3021 3019 3017 3015 3013 3011 3009 3007 3005 3003 3001 2999
3047 3050 3052 3054 3056 3058 3060 3062 3064 3065 3067 3068 3069 3070 3071 3072 3073 3074 3074 3075 3075 3075 3076 3076 3076 3076 3075 3075 3075 3074 3074 3074 3073 3072 3071 3071 3070 3069 3067 3066 3065 3064 3063 3062 3061 3059 3058 3057 3056 3055 3054 3053 3052 3050 3049 3047 3045 3043 3041 3040 3039 3038 3036 3035 3034 3033 3032 3030 3029 3028 3026 3025 3024 3022 3020 3018 3017 3015 3013 3011 3009 3007 3005 3003 3001
3046 3047 3049 3051 3053 3055 3057 3059 3061 3063 3064 3065 3066 3067 3068 3069 3070 3071 3071 3072 3072 3072 3073 3073 3073 3073 3072 3072 3072 3071 3071 3070 3069 3069 3068 3067 3066 3065 3064 3062 3061 3060 3059 3058 3057 3056 3055 3053 3052 3051 3050 3049 3048 3047 3046 3045 3043 3041 3039 3037 3036 3035 3034 3033 3032 3031 3030 3028 3027 3026 3025 3024 3023 3022 3020 3019 3017 3016 3014 3012 3010 3009 3007 3005 3003
3043 3045 3047 3049 3050 3052 3054 3056 3058 3060 3061 3062 3063 3064 3065 3066 3067 3067 3068 3068 3068 3069 3069 3069 3069 3069 3069 3068 3068 3068 3067 3066 3066 3065 3064 3063 3062 3061 3060 3059 3058 3057 3056 3055 3054 3053 3051 3050 3049 3048 3047 3046 3044 3043 3043 3041 3040 3038 3037 3035 3034 3032 3031 3030 3029 3028 3028 3026 3025 3024 3023 3022 3021 3020 3019 3018 3017 3016 3014 3013 3011 3010 3008 3007 3005
3042 3043 3045 3047 3048 3050 3051 3052 3054 3056 3057 3059 3060 3061 3062 3063 3063 3064 3064 3064 3065 3065 3065 3065 3065 3065 3065 3064 3064 3063 3063 3062 3061 3060 3060 3059 3058 3057 3056 3055 3054 3053 3052 3051 3051 3050 3048 3047 3046 3045 3044 3043 3041 3040 3040 3039 3038 3036 3035 3033 3032 3030 3029 3028 3027 3026 3026 3025 3023 3022 3021 3021 3020 3019 3018 3017 3016 3015 3014 3013 3012 3010 3009 3007 3006